Year,Month,Day,Hour,Minute,Value (Times are PST for temperature in C)
2016,03,29,00,00,4.10
2016,03,29,00,01,4.10
2016,03,29,00,02,4.10
2016,03,29,00,03,4.10
2016,03,29,00,04,4.10
2016,03,29,00,05,4.10
2016,03,29,00,06,4.00
2016,03,29,00,07,4.00
2016,03,29,00,08,4.00
2016,03,29,00,09,4.00
2016,03,29,00,10,4.00
2016,03,29,00,11,4.00
2016,03,29,00,12,4.00
2016,03,29,00,13,4.00
2016,03,29,00,14,4.00
2016,03,29,00,15,3.90
2016,03,29,00,16,3.90
2016,03,29,00,17,3.90
2016,03,29,00,18,3.90
2016,03,29,00,19,3.90
2016,03,29,00,20,3.90
2016,03,29,00,21,3.80
2016,03,29,00,22,3.80
2016,03,29,00,23,3.80
2016,03,29,00,24,3.80
2016,03,29,00,25,3.80
2016,03,29,00,26,3.80
2016,03,29,00,27,3.80
2016,03,29,00,28,3.80
2016,03,29,00,29,3.80
2016,03,29,00,30,3.80
2016,03,29,00,31,3.80
2016,03,29,00,32,3.80
2016,03,29,00,33,3.80
2016,03,29,00,34,3.80
2016,03,29,00,35,3.80
2016,03,29,00,36,3.80
2016,03,29,00,37,3.70
2016,03,29,00,38,3.70
2016,03,29,00,39,3.70
2016,03,29,00,40,3.70
2016,03,29,00,41,3.70
2016,03,29,00,42,3.70
2016,03,29,00,43,3.60
2016,03,29,00,44,3.60
2016,03,29,00,45,3.60
2016,03,29,00,46,3.60
2016,03,29,00,47,3.60
2016,03,29,00,48,3.60
2016,03,29,00,49,3.60
2016,03,29,00,50,3.60
2016,03,29,00,51,3.60
2016,03,29,00,52,3.60
2016,03,29,00,53,3.50
2016,03,29,00,54,3.50
2016,03,29,00,55,3.50
2016,03,29,00,56,3.40
2016,03,29,00,57,3.40
2016,03,29,00,58,3.40
2016,03,29,00,59,3.40
2016,03,29,01,00,3.40
2016,03,29,01,01,3.40
2016,03,29,01,02,3.40
2016,03,29,01,03,3.40
2016,03,29,01,04,3.30
2016,03,29,01,05,3.30
2016,03,29,01,06,3.30
2016,03,29,01,07,3.30
2016,03,29,01,08,3.30
2016,03,29,01,09,3.30
2016,03,29,01,10,3.30
2016,03,29,01,11,3.30
2016,03,29,01,12,3.30
2016,03,29,01,13,3.30
2016,03,29,01,14,3.30
2016,03,29,01,15,3.20
2016,03,29,01,16,3.20
2016,03,29,01,17,3.20
2016,03,29,01,18,3.20
2016,03,29,01,19,3.20
2016,03,29,01,20,3.10
2016,03,29,01,21,3.10
2016,03,29,01,22,3.10
2016,03,29,01,23,3.10
2016,03,29,01,24,3.10
2016,03,29,01,25,3.10
2016,03,29,01,26,3.10
2016,03,29,01,27,3.10
2016,03,29,01,28,3.10
2016,03,29,01,29,3.10
2016,03,29,01,30,3.10
2016,03,29,01,31,3.10
2016,03,29,01,32,3.10
2016,03,29,01,33,3.10
2016,03,29,01,34,3.10
2016,03,29,01,35,3.10
2016,03,29,01,36,3.10
2016,03,29,01,37,3.10
2016,03,29,01,38,3.10
2016,03,29,01,39,3.10
2016,03,29,01,40,3.10
2016,03,29,01,41,3.10
2016,03,29,01,42,3.10
2016,03,29,01,43,3.10
2016,03,29,01,44,3.10
2016,03,29,01,45,3.00
2016,03,29,01,46,3.00
2016,03,29,01,47,3.00
2016,03,29,01,48,3.00
2016,03,29,01,49,3.00
2016,03,29,01,50,3.00
2016,03,29,01,51,3.00
2016,03,29,01,52,2.90
2016,03,29,01,53,2.90
2016,03,29,01,54,2.90
2016,03,29,01,55,2.90
2016,03,29,01,56,2.90
2016,03,29,01,57,2.80
2016,03,29,01,58,2.80
2016,03,29,01,59,2.80
2016,03,29,02,00,2.80
2016,03,29,02,01,2.80
2016,03,29,02,02,2.80
2016,03,29,02,03,2.80
2016,03,29,02,04,2.70
2016,03,29,02,05,2.70
2016,03,29,02,06,2.70
2016,03,29,02,07,2.70
2016,03,29,02,08,2.70
2016,03,29,02,09,2.70
2016,03,29,02,10,2.60
2016,03,29,02,11,2.60
2016,03,29,02,12,2.60
2016,03,29,02,13,2.60
2016,03,29,02,14,2.60
2016,03,29,02,15,2.50
2016,03,29,02,16,2.50
2016,03,29,02,17,2.50
2016,03,29,02,18,2.50
2016,03,29,02,19,2.50
2016,03,29,02,20,2.50
2016,03,29,02,21,2.50
2016,03,29,02,22,2.50
2016,03,29,02,23,2.50
2016,03,29,02,24,2.50
2016,03,29,02,25,2.40
2016,03,29,02,26,2.40
2016,03,29,02,27,2.40
2016,03,29,02,28,2.40
2016,03,29,02,29,2.40
2016,03,29,02,30,2.40
2016,03,29,02,31,2.40
2016,03,29,02,32,2.30
2016,03,29,02,33,2.30
2016,03,29,02,34,2.30
2016,03,29,02,35,2.30
2016,03,29,02,36,2.30
2016,03,29,02,37,2.40
2016,03,29,02,38,2.40
2016,03,29,02,39,2.30
2016,03,29,02,40,2.30
2016,03,29,02,41,2.30
2016,03,29,02,42,2.30
2016,03,29,02,43,2.30
2016,03,29,02,44,2.30
2016,03,29,02,45,2.30
2016,03,29,02,46,2.30
2016,03,29,02,47,2.30
2016,03,29,02,48,2.30
2016,03,29,02,49,2.20
2016,03,29,02,50,2.20
2016,03,29,02,51,2.20
2016,03,29,02,52,2.20
2016,03,29,02,53,2.20
2016,03,29,02,54,2.20
2016,03,29,02,55,2.20
2016,03,29,02,56,2.20
2016,03,29,02,57,2.20
2016,03,29,02,58,2.20
2016,03,29,02,59,2.20
2016,03,29,03,00,2.20
2016,03,29,03,01,2.20
2016,03,29,03,02,2.20
2016,03,29,03,03,2.20
2016,03,29,03,04,2.20
2016,03,29,03,05,2.20
2016,03,29,03,06,2.20
2016,03,29,03,07,2.20
2016,03,29,03,08,2.20
2016,03,29,03,09,2.20
2016,03,29,03,10,2.20
2016,03,29,03,11,2.20
2016,03,29,03,12,2.20
2016,03,29,03,13,2.20
2016,03,29,03,14,2.20
2016,03,29,03,15,2.20
2016,03,29,03,16,2.20
2016,03,29,03,17,2.10
2016,03,29,03,18,2.10
2016,03,29,03,19,2.10
2016,03,29,03,20,2.10
2016,03,29,03,21,2.10
2016,03,29,03,22,2.10
2016,03,29,03,23,2.10
2016,03,29,03,24,2.10
2016,03,29,03,25,2.10
2016,03,29,03,26,2.10
2016,03,29,03,27,2.20
2016,03,29,03,28,2.20
2016,03,29,03,29,2.20
2016,03,29,03,30,2.20
2016,03,29,03,31,2.20
2016,03,29,03,32,2.10
2016,03,29,03,33,2.10
2016,03,29,03,34,2.10
2016,03,29,03,35,2.10
2016,03,29,03,36,2.10
2016,03,29,03,37,2.10
2016,03,29,03,38,2.10
2016,03,29,03,39,2.10
2016,03,29,03,40,2.10
2016,03,29,03,41,2.10
2016,03,29,03,42,2.10
2016,03,29,03,43,2.10
2016,03,29,03,44,2.10
2016,03,29,03,45,2.10
2016,03,29,03,46,2.10
2016,03,29,03,47,2.10
2016,03,29,03,48,2.10
2016,03,29,03,49,2.10
2016,03,29,03,50,2.10
2016,03,29,03,51,2.10
2016,03,29,03,52,2.10
2016,03,29,03,53,2.10
2016,03,29,03,54,2.10
2016,03,29,03,55,2.10
2016,03,29,03,56,2.10
2016,03,29,03,57,2.10
2016,03,29,03,58,2.10
2016,03,29,03,59,2.00
2016,03,29,04,00,2.00
2016,03,29,04,01,2.00
2016,03,29,04,02,2.00
2016,03,29,04,03,2.00
2016,03,29,04,04,1.90
2016,03,29,04,05,1.90
2016,03,29,04,06,1.90
2016,03,29,04,07,1.90
2016,03,29,04,08,2.00
2016,03,29,04,09,2.00
2016,03,29,04,10,2.00
2016,03,29,04,11,2.00
2016,03,29,04,12,2.00
2016,03,29,04,13,2.00
2016,03,29,04,14,2.00
2016,03,29,04,15,2.00
2016,03,29,04,16,2.00
2016,03,29,04,17,2.00
2016,03,29,04,18,2.00
2016,03,29,04,19,2.00
2016,03,29,04,20,2.00
2016,03,29,04,21,2.00
2016,03,29,04,22,2.00
2016,03,29,04,23,2.00
2016,03,29,04,24,2.00
2016,03,29,04,25,2.00
2016,03,29,04,26,2.00
2016,03,29,04,27,1.90
2016,03,29,04,28,1.90
2016,03,29,04,29,1.90
2016,03,29,04,30,1.90
2016,03,29,04,31,1.90
2016,03,29,04,32,1.90
2016,03,29,04,33,1.90
2016,03,29,04,34,1.90
2016,03,29,04,35,1.90
2016,03,29,04,36,1.90
2016,03,29,04,37,1.90
2016,03,29,04,38,1.90
2016,03,29,04,39,1.90
2016,03,29,04,40,1.90
2016,03,29,04,41,1.90
2016,03,29,04,42,1.90
2016,03,29,04,43,1.90
2016,03,29,04,44,1.90
2016,03,29,04,45,1.90
2016,03,29,04,46,1.90
2016,03,29,04,47,1.90
2016,03,29,04,48,1.90
2016,03,29,04,49,1.80
2016,03,29,04,50,1.80
2016,03,29,04,51,1.80
2016,03,29,04,52,1.80
2016,03,29,04,53,1.80
2016,03,29,04,54,1.80
2016,03,29,04,55,1.80
2016,03,29,04,56,1.80
2016,03,29,04,57,1.80
2016,03,29,04,58,1.80
2016,03,29,04,59,1.80
2016,03,29,05,00,1.80
2016,03,29,05,01,1.80
2016,03,29,05,02,1.80
2016,03,29,05,03,1.80
2016,03,29,05,04,1.70
2016,03,29,05,05,1.70
2016,03,29,05,06,1.70
2016,03,29,05,07,1.70
2016,03,29,05,08,1.70
2016,03,29,05,09,1.70
2016,03,29,05,10,1.70
2016,03,29,05,11,1.70
2016,03,29,05,12,1.70
2016,03,29,05,13,1.70
2016,03,29,05,14,1.70
2016,03,29,05,15,1.70
2016,03,29,05,16,1.70
2016,03,29,05,17,1.70
2016,03,29,05,18,1.70
2016,03,29,05,19,1.70
2016,03,29,05,20,1.80
2016,03,29,05,21,1.80
2016,03,29,05,22,1.80
2016,03,29,05,23,1.80
2016,03,29,05,24,1.80
2016,03,29,05,25,1.80
2016,03,29,05,26,1.80
2016,03,29,05,27,1.80
2016,03,29,05,28,1.90
2016,03,29,05,29,1.90
2016,03,29,05,30,1.80
2016,03,29,05,31,1.80
2016,03,29,05,32,1.80
2016,03,29,05,33,1.80
2016,03,29,05,34,1.80
2016,03,29,05,35,1.80
2016,03,29,05,36,1.90
2016,03,29,05,37,1.90
2016,03,29,05,38,1.90
2016,03,29,05,39,1.90
2016,03,29,05,40,1.90
2016,03,29,05,41,1.90
2016,03,29,05,42,1.90
2016,03,29,05,43,1.90
2016,03,29,05,44,1.90
2016,03,29,05,45,1.90
2016,03,29,05,46,1.90
2016,03,29,05,47,1.90
2016,03,29,05,48,1.90
2016,03,29,05,49,1.90
2016,03,29,05,50,1.80
2016,03,29,05,51,1.80
2016,03,29,05,52,1.80
2016,03,29,05,53,1.80
2016,03,29,05,54,1.80
2016,03,29,05,55,1.80
2016,03,29,05,56,1.70
2016,03,29,05,57,1.70
2016,03,29,05,58,1.70
2016,03,29,05,59,1.70
2016,03,29,06,00,1.70
2016,03,29,06,01,1.70
2016,03,29,06,02,1.60
2016,03,29,06,03,1.60
2016,03,29,06,04,1.60
2016,03,29,06,05,1.60
2016,03,29,06,06,1.60
2016,03,29,06,07,1.60
2016,03,29,06,08,1.60
2016,03,29,06,09,1.60
2016,03,29,06,10,1.60
2016,03,29,06,11,1.50
2016,03,29,06,12,1.50
2016,03,29,06,13,1.50
2016,03,29,06,14,1.50
2016,03,29,06,15,1.50
2016,03,29,06,16,1.50
2016,03,29,06,17,1.60
2016,03,29,06,18,1.60
2016,03,29,06,19,1.70
2016,03,29,06,20,1.70
2016,03,29,06,21,1.80
2016,03,29,06,22,1.80
2016,03,29,06,23,1.90
2016,03,29,06,24,1.90
2016,03,29,06,25,2.00
2016,03,29,06,26,2.00
2016,03,29,06,27,2.10
2016,03,29,06,28,2.00
2016,03,29,06,29,2.00
2016,03,29,06,30,2.00
2016,03,29,06,31,2.00
2016,03,29,06,32,2.00
2016,03,29,06,33,2.00
2016,03,29,06,34,2.00
2016,03,29,06,35,2.00
2016,03,29,06,36,2.00
2016,03,29,06,37,2.00
2016,03,29,06,38,2.00
2016,03,29,06,39,2.00
2016,03,29,06,40,2.00
2016,03,29,06,41,2.00
2016,03,29,06,42,2.00
2016,03,29,06,43,2.00
2016,03,29,06,44,2.00
2016,03,29,06,45,2.00
2016,03,29,06,46,2.00
2016,03,29,06,47,2.00
2016,03,29,06,48,2.00
2016,03,29,06,49,2.00
2016,03,29,06,50,2.00
2016,03,29,06,51,2.00
2016,03,29,06,52,1.90
2016,03,29,06,53,1.90
2016,03,29,06,54,1.90
2016,03,29,06,55,1.90
2016,03,29,06,56,1.90
2016,03,29,06,57,1.80
2016,03,29,06,58,1.80
2016,03,29,06,59,1.80
2016,03,29,07,00,1.80
2016,03,29,07,01,1.80
2016,03,29,07,02,1.80
2016,03,29,07,03,1.80
2016,03,29,07,04,1.80
2016,03,29,07,05,1.80
2016,03,29,07,06,1.80
2016,03,29,07,07,1.80
2016,03,29,07,08,1.80
2016,03,29,07,09,1.80
2016,03,29,07,10,1.80
2016,03,29,07,11,1.80
2016,03,29,07,12,1.80
2016,03,29,07,13,1.80
2016,03,29,07,14,1.80
2016,03,29,07,15,1.80
2016,03,29,07,16,1.80
2016,03,29,07,17,1.80
2016,03,29,07,18,1.70
2016,03,29,07,19,1.70
2016,03,29,07,20,1.70
2016,03,29,07,21,1.70
2016,03,29,07,22,1.70
2016,03,29,07,23,1.70
2016,03,29,07,24,1.70
2016,03,29,07,25,1.70
2016,03,29,07,26,1.70
2016,03,29,07,27,1.70
2016,03,29,07,28,1.70
2016,03,29,07,29,1.70
2016,03,29,07,30,1.70
2016,03,29,07,31,1.70
2016,03,29,07,32,1.70
2016,03,29,07,33,1.70
2016,03,29,07,34,1.80
2016,03,29,07,35,1.80
2016,03,29,07,36,1.80
2016,03,29,07,37,1.80
2016,03,29,07,38,1.80
2016,03,29,07,39,1.90
2016,03,29,07,40,1.90
2016,03,29,07,41,2.00
2016,03,29,07,42,2.00
2016,03,29,07,43,2.00
2016,03,29,07,44,2.10
2016,03,29,07,45,2.10
2016,03,29,07,46,2.10
2016,03,29,07,47,2.10
2016,03,29,07,48,2.20
2016,03,29,07,49,2.20
2016,03,29,07,50,2.20
2016,03,29,07,51,2.20
2016,03,29,07,52,2.20
2016,03,29,07,53,2.30
2016,03,29,07,54,2.30
2016,03,29,07,55,2.30
2016,03,29,07,56,2.40
2016,03,29,07,57,2.40
2016,03,29,07,58,2.50
2016,03,29,07,59,2.50
2016,03,29,08,00,2.60
2016,03,29,08,01,2.70
2016,03,29,08,02,2.80
2016,03,29,08,03,2.90
2016,03,29,08,04,3.00
2016,03,29,08,05,3.00
2016,03,29,08,06,3.10
2016,03,29,08,07,3.20
2016,03,29,08,08,3.30
2016,03,29,08,09,3.30
2016,03,29,08,10,3.50
2016,03,29,08,11,3.50
2016,03,29,08,12,3.70
2016,03,29,08,13,3.80
2016,03,29,08,14,3.80
2016,03,29,08,15,3.90
2016,03,29,08,16,3.90
2016,03,29,08,17,4.00
2016,03,29,08,18,4.10
2016,03,29,08,19,4.10
2016,03,29,08,20,4.20
2016,03,29,08,21,4.20
2016,03,29,08,22,4.30
2016,03,29,08,23,4.30
2016,03,29,08,24,4.30
2016,03,29,08,25,4.30
2016,03,29,08,26,4.40
2016,03,29,08,27,4.50
2016,03,29,08,28,4.60
2016,03,29,08,29,4.70
2016,03,29,08,30,4.80
2016,03,29,08,31,4.90
2016,03,29,08,32,4.90
2016,03,29,08,33,4.90
2016,03,29,08,34,5.00
2016,03,29,08,35,5.00
2016,03,29,08,36,5.10
2016,03,29,08,37,5.10
2016,03,29,08,38,5.20
2016,03,29,08,39,5.20
2016,03,29,08,40,5.30
2016,03,29,08,41,5.30
2016,03,29,08,42,5.40
2016,03,29,08,43,5.40
2016,03,29,08,44,5.60
2016,03,29,08,45,5.70
2016,03,29,08,46,5.80
2016,03,29,08,47,5.80
2016,03,29,08,48,5.90
2016,03,29,08,49,6.00
2016,03,29,08,50,6.10
2016,03,29,08,51,6.20
2016,03,29,08,52,6.30
2016,03,29,08,53,6.40
2016,03,29,08,54,6.50
2016,03,29,08,55,6.60
2016,03,29,08,56,6.70
2016,03,29,08,57,6.80
2016,03,29,08,58,6.90
2016,03,29,08,59,7.00
2016,03,29,09,00,7.20
2016,03,29,09,01,7.30
2016,03,29,09,02,7.40
2016,03,29,09,03,7.60
2016,03,29,09,04,7.80
2016,03,29,09,05,7.90
2016,03,29,09,06,8.10
2016,03,29,09,07,8.20
2016,03,29,09,08,8.30
2016,03,29,09,09,8.40
2016,03,29,09,10,8.60
2016,03,29,09,11,8.70
2016,03,29,09,12,8.80
2016,03,29,09,13,9.00
2016,03,29,09,14,9.30
2016,03,29,09,15,9.40
2016,03,29,09,16,9.60
2016,03,29,09,17,9.70
2016,03,29,09,18,9.80
2016,03,29,09,19,9.90
2016,03,29,09,20,10.00
2016,03,29,09,21,10.10
2016,03,29,09,22,10.30
2016,03,29,09,23,10.40
2016,03,29,09,24,10.60
2016,03,29,09,25,10.70
2016,03,29,09,26,10.90
2016,03,29,09,27,11.00
2016,03,29,09,28,11.10
2016,03,29,09,29,11.20
2016,03,29,09,30,11.30
2016,03,29,09,31,11.30
2016,03,29,09,32,11.40
2016,03,29,09,33,11.50
2016,03,29,09,34,11.60
2016,03,29,09,35,11.70
2016,03,29,09,36,11.80
2016,03,29,09,37,11.80
2016,03,29,09,38,11.90
2016,03,29,09,39,12.00
2016,03,29,09,40,12.10
2016,03,29,09,41,12.10
2016,03,29,09,42,12.20
2016,03,29,09,43,12.30
2016,03,29,09,44,12.30
2016,03,29,09,45,12.30
2016,03,29,09,46,12.30
2016,03,29,09,47,12.30
2016,03,29,09,48,12.40
2016,03,29,09,49,12.40
2016,03,29,09,50,12.50
2016,03,29,09,51,12.50
2016,03,29,09,52,12.60
2016,03,29,09,53,12.60
2016,03,29,09,54,12.70
2016,03,29,09,55,12.80
2016,03,29,09,56,12.90
2016,03,29,09,57,13.00
2016,03,29,09,58,13.00
2016,03,29,09,59,13.10
2016,03,29,10,00,13.10
2016,03,29,10,01,13.20
2016,03,29,10,02,13.20
2016,03,29,10,03,13.20
2016,03,29,10,04,13.20
2016,03,29,10,05,13.30
2016,03,29,10,06,13.30
2016,03,29,10,07,13.30
2016,03,29,10,08,13.30
2016,03,29,10,09,13.40
2016,03,29,10,10,13.50
2016,03,29,10,11,13.50
2016,03,29,10,12,13.60
2016,03,29,10,13,13.60
2016,03,29,10,14,13.70
2016,03,29,10,15,13.70
2016,03,29,10,16,13.80
2016,03,29,10,17,13.80
2016,03,29,10,18,13.90
2016,03,29,10,19,13.90
2016,03,29,10,20,13.90
2016,03,29,10,21,13.90
2016,03,29,10,22,13.90
2016,03,29,10,23,14.00
2016,03,29,10,24,14.00
2016,03,29,10,25,14.00
2016,03,29,10,26,14.00
2016,03,29,10,27,14.00
2016,03,29,10,28,14.10
2016,03,29,10,29,14.00
2016,03,29,10,30,14.00
2016,03,29,10,31,14.00
2016,03,29,10,32,14.00
2016,03,29,10,33,14.00
2016,03,29,10,34,14.10
2016,03,29,10,35,14.10
2016,03,29,10,36,14.20
2016,03,29,10,37,14.20
2016,03,29,10,38,14.30
2016,03,29,10,39,14.40
2016,03,29,10,40,14.50
2016,03,29,10,41,14.60
2016,03,29,10,42,14.70
2016,03,29,10,43,14.70
2016,03,29,10,44,14.80
2016,03,29,10,45,14.80
2016,03,29,10,46,14.80
2016,03,29,10,47,14.90
2016,03,29,10,48,15.00
2016,03,29,10,49,15.00
2016,03,29,10,50,15.00
2016,03,29,10,51,14.90
2016,03,29,10,52,14.90
2016,03,29,10,53,14.90
2016,03,29,10,54,15.00
2016,03,29,10,55,15.00
2016,03,29,10,56,15.00
2016,03,29,10,57,15.00
2016,03,29,10,58,15.00
2016,03,29,10,59,15.00
2016,03,29,11,00,15.00
2016,03,29,11,01,15.00
2016,03,29,11,02,15.00
2016,03,29,11,03,15.00
2016,03,29,11,04,15.00
2016,03,29,11,05,15.00
2016,03,29,11,06,15.00
2016,03,29,11,07,15.10
2016,03,29,11,08,15.10
2016,03,29,11,09,15.20
2016,03,29,11,10,15.20
2016,03,29,11,11,15.20
2016,03,29,11,12,15.10
2016,03,29,11,13,15.10
2016,03,29,11,14,15.00
2016,03,29,11,15,15.00
2016,03,29,11,16,15.10
2016,03,29,11,17,15.20
2016,03,29,11,18,15.20
2016,03,29,11,19,15.30
2016,03,29,11,20,15.30
2016,03,29,11,21,15.30
2016,03,29,11,22,15.40
2016,03,29,11,23,15.50
2016,03,29,11,24,15.60
2016,03,29,11,25,15.60
2016,03,29,11,26,15.70
2016,03,29,11,27,15.80
2016,03,29,11,28,15.80
2016,03,29,11,29,15.90
2016,03,29,11,30,15.90
2016,03,29,11,31,15.90
2016,03,29,11,32,15.90
2016,03,29,11,33,15.80
2016,03,29,11,34,15.80
2016,03,29,11,35,15.70
2016,03,29,11,36,15.70
2016,03,29,11,37,15.80
2016,03,29,11,38,15.80
2016,03,29,11,39,15.90
2016,03,29,11,40,16.00
2016,03,29,11,41,16.10
2016,03,29,11,42,16.20
2016,03,29,11,43,16.30
2016,03,29,11,44,16.40
2016,03,29,11,45,16.40
2016,03,29,11,46,16.40
2016,03,29,11,47,16.40
2016,03,29,11,48,16.30
2016,03,29,11,49,16.40
2016,03,29,11,50,16.40
2016,03,29,11,51,16.30
2016,03,29,11,52,16.40
2016,03,29,11,53,16.40
2016,03,29,11,54,16.30
2016,03,29,11,55,16.30
2016,03,29,11,56,16.20
2016,03,29,11,57,16.20
2016,03,29,11,58,16.20
2016,03,29,11,59,16.20
2016,03,29,12,00,16.20
2016,03,29,12,01,16.20
2016,03,29,12,02,16.20
2016,03,29,12,03,16.20
2016,03,29,12,04,16.30
2016,03,29,12,05,16.40
2016,03,29,12,06,16.40
2016,03,29,12,07,16.40
2016,03,29,12,08,16.40
2016,03,29,12,09,16.40
2016,03,29,12,10,16.40
2016,03,29,12,11,16.40
2016,03,29,12,12,16.40
2016,03,29,12,13,16.40
2016,03,29,12,14,16.40
2016,03,29,12,15,16.30
2016,03,29,12,16,16.20
2016,03,29,12,17,16.10
2016,03,29,12,18,16.00
2016,03,29,12,19,15.90
2016,03,29,12,20,15.90
2016,03,29,12,21,15.80
2016,03,29,12,22,15.80
2016,03,29,12,23,15.90
2016,03,29,12,24,16.00
2016,03,29,12,25,16.00
2016,03,29,12,26,16.00
2016,03,29,12,27,16.10
2016,03,29,12,28,16.10
2016,03,29,12,29,16.20
2016,03,29,12,30,16.20
2016,03,29,12,31,16.30
2016,03,29,12,32,16.30
2016,03,29,12,33,16.30
2016,03,29,12,34,16.30
2016,03,29,12,35,16.30
2016,03,29,12,36,16.30
2016,03,29,12,37,16.40
2016,03,29,12,38,16.40
2016,03,29,12,39,16.40
2016,03,29,12,40,16.50
2016,03,29,12,41,16.50
2016,03,29,12,42,16.50
2016,03,29,12,43,16.50
2016,03,29,12,44,16.50
2016,03,29,12,45,16.60
2016,03,29,12,46,16.60
2016,03,29,12,47,16.70
2016,03,29,12,48,16.70
2016,03,29,12,49,16.70
2016,03,29,12,50,16.70
2016,03,29,12,51,16.80
2016,03,29,12,52,16.80
2016,03,29,12,53,16.80
2016,03,29,12,54,16.80
2016,03,29,12,55,16.80
2016,03,29,12,56,16.90
2016,03,29,12,57,16.90
2016,03,29,12,58,16.90
2016,03,29,12,59,17.00
2016,03,29,13,00,17.10
2016,03,29,13,01,17.10
2016,03,29,13,02,17.10
2016,03,29,13,03,17.20
2016,03,29,13,04,17.20
2016,03,29,13,05,17.10
2016,03,29,13,06,17.00
2016,03,29,13,07,16.80
2016,03,29,13,08,16.80
2016,03,29,13,09,16.80
2016,03,29,13,10,16.80
2016,03,29,13,11,16.90
2016,03,29,13,12,16.90
2016,03,29,13,13,16.90
2016,03,29,13,14,16.80
2016,03,29,13,15,17.00
2016,03,29,13,16,17.00
2016,03,29,13,17,17.10
2016,03,29,13,18,17.20
2016,03,29,13,19,17.20
2016,03,29,13,20,17.20
2016,03,29,13,21,17.10
2016,03,29,13,22,17.10
2016,03,29,13,23,17.10
2016,03,29,13,24,17.10
2016,03,29,13,25,17.10
2016,03,29,13,26,17.10
2016,03,29,13,27,17.10
2016,03,29,13,28,17.10
2016,03,29,13,29,17.00
2016,03,29,13,30,17.00
2016,03,29,13,31,17.10
2016,03,29,13,32,17.30
2016,03,29,13,33,17.40
2016,03,29,13,34,17.50
2016,03,29,13,35,17.50
2016,03,29,13,36,17.40
2016,03,29,13,37,17.30
2016,03,29,13,38,17.30
2016,03,29,13,39,17.40
2016,03,29,13,40,17.50
2016,03,29,13,41,17.60
2016,03,29,13,42,17.70
2016,03,29,13,43,17.70
2016,03,29,13,44,17.70
2016,03,29,13,45,17.80
2016,03,29,13,46,17.80
2016,03,29,13,47,17.80
2016,03,29,13,48,17.80
2016,03,29,13,49,17.70
2016,03,29,13,50,17.70
2016,03,29,13,51,17.70
2016,03,29,13,52,17.80
2016,03,29,13,53,17.80
2016,03,29,13,54,17.70
2016,03,29,13,55,17.60
2016,03,29,13,56,17.60
2016,03,29,13,57,17.50
2016,03,29,13,58,17.50
2016,03,29,13,59,17.50
2016,03,29,14,00,17.60
2016,03,29,14,01,17.70
2016,03,29,14,02,17.80
2016,03,29,14,03,17.90
2016,03,29,14,04,18.00
2016,03,29,14,05,18.00
2016,03,29,14,06,18.00
2016,03,29,14,07,17.90
2016,03,29,14,08,18.00
2016,03,29,14,09,18.00
2016,03,29,14,10,18.10
2016,03,29,14,11,18.20
2016,03,29,14,12,18.30
2016,03,29,14,13,18.30
2016,03,29,14,14,18.50
2016,03,29,14,15,18.50
2016,03,29,14,16,18.60
2016,03,29,14,17,18.50
2016,03,29,14,18,18.50
2016,03,29,14,19,18.50
2016,03,29,14,20,18.50
2016,03,29,14,21,18.50
2016,03,29,14,22,18.40
2016,03,29,14,23,18.40
2016,03,29,14,24,18.50
2016,03,29,14,25,18.60
2016,03,29,14,26,18.60
2016,03,29,14,27,18.70
2016,03,29,14,28,18.80
2016,03,29,14,29,18.90
2016,03,29,14,30,19.00
2016,03,29,14,31,19.10
2016,03,29,14,32,19.10
2016,03,29,14,33,18.90
2016,03,29,14,34,18.80
2016,03,29,14,35,18.70
2016,03,29,14,36,18.60
2016,03,29,14,37,18.60
2016,03,29,14,38,18.60
2016,03,29,14,39,18.60
2016,03,29,14,40,18.60
2016,03,29,14,41,18.60
2016,03,29,14,42,18.50
2016,03,29,14,43,18.40
2016,03,29,14,44,18.30
2016,03,29,14,45,18.20
2016,03,29,14,46,18.10
2016,03,29,14,47,18.00
2016,03,29,14,48,17.90
2016,03,29,14,49,17.80
2016,03,29,14,50,17.80
2016,03,29,14,51,17.90
2016,03,29,14,52,17.90
2016,03,29,14,53,17.90
2016,03,29,14,54,17.90
2016,03,29,14,55,17.90
2016,03,29,14,56,17.90
2016,03,29,14,57,17.90
2016,03,29,14,58,17.90
2016,03,29,14,59,17.90
2016,03,29,15,00,17.80
2016,03,29,15,01,17.90
2016,03,29,15,02,17.90
2016,03,29,15,03,17.90
2016,03,29,15,04,17.90
2016,03,29,15,05,17.80
2016,03,29,15,06,17.80
2016,03,29,15,07,17.70
2016,03,29,15,08,17.70
2016,03,29,15,09,17.80
2016,03,29,15,10,17.80
2016,03,29,15,11,17.90
2016,03,29,15,12,18.00
2016,03,29,15,13,18.10
2016,03,29,15,14,18.20
2016,03,29,15,15,18.30
2016,03,29,15,16,18.30
2016,03,29,15,17,18.40
2016,03,29,15,18,18.50
2016,03,29,15,19,18.60
2016,03,29,15,20,18.60
2016,03,29,15,21,18.60
2016,03,29,15,22,18.60
2016,03,29,15,23,18.60
2016,03,29,15,24,18.50
2016,03,29,15,25,18.50
2016,03,29,15,26,18.60
2016,03,29,15,27,18.60
2016,03,29,15,28,18.60
2016,03,29,15,29,18.60
2016,03,29,15,30,18.60
2016,03,29,15,31,18.60
2016,03,29,15,32,18.60
2016,03,29,15,33,18.70
2016,03,29,15,34,18.70
2016,03,29,15,35,18.70
2016,03,29,15,36,18.70
2016,03,29,15,37,18.70
2016,03,29,15,38,18.70
2016,03,29,15,39,18.70
2016,03,29,15,40,18.70
2016,03,29,15,41,18.70
2016,03,29,15,42,18.70
2016,03,29,15,43,18.60
2016,03,29,15,44,18.50
2016,03,29,15,45,18.40
2016,03,29,15,46,18.30
2016,03,29,15,47,18.20
2016,03,29,15,48,17.90
2016,03,29,15,49,17.80
2016,03,29,15,50,17.70
2016,03,29,15,51,17.60
2016,03,29,15,52,17.50
2016,03,29,15,53,17.50
2016,03,29,15,54,17.50
2016,03,29,15,55,17.40
2016,03,29,15,56,17.40
2016,03,29,15,57,17.40
2016,03,29,15,58,17.50
2016,03,29,15,59,17.40
2016,03,29,16,00,17.40
2016,03,29,16,01,17.30
2016,03,29,16,02,17.30
2016,03,29,16,03,17.30
2016,03,29,16,04,17.30
2016,03,29,16,05,17.30
2016,03,29,16,06,17.40
2016,03,29,16,07,17.40
2016,03,29,16,08,17.40
2016,03,29,16,09,17.50
2016,03,29,16,10,17.60
2016,03,29,16,11,17.60
2016,03,29,16,12,17.60
2016,03,29,16,13,17.60
2016,03,29,16,14,17.60
2016,03,29,16,15,17.60
2016,03,29,16,16,17.60
2016,03,29,16,17,17.60
2016,03,29,16,18,17.60
2016,03,29,16,19,17.60
2016,03,29,16,20,17.60
2016,03,29,16,21,17.60
2016,03,29,16,22,17.60
2016,03,29,16,23,17.50
2016,03,29,16,24,17.50
2016,03,29,16,25,17.50
2016,03,29,16,26,17.60
2016,03,29,16,27,17.60
2016,03,29,16,28,17.60
2016,03,29,16,29,17.60
2016,03,29,16,30,17.60
2016,03,29,16,31,17.70
2016,03,29,16,32,17.70
2016,03,29,16,33,17.70
2016,03,29,16,34,17.70
2016,03,29,16,35,17.80
2016,03,29,16,36,17.80
2016,03,29,16,37,17.80
2016,03,29,16,38,17.80
2016,03,29,16,39,17.90
2016,03,29,16,40,18.00
2016,03,29,16,41,18.10
2016,03,29,16,42,18.10
2016,03,29,16,43,18.20
2016,03,29,16,44,18.30
2016,03,29,16,45,18.30
2016,03,29,16,46,18.20
2016,03,29,16,47,18.20
2016,03,29,16,48,18.10
2016,03,29,16,49,18.10
2016,03,29,16,50,18.00
2016,03,29,16,51,17.90
2016,03,29,16,52,17.90
2016,03,29,16,53,17.80
2016,03,29,16,54,17.80
2016,03,29,16,55,17.80
2016,03,29,16,56,17.80
2016,03,29,16,57,17.80
2016,03,29,16,58,17.80
2016,03,29,16,59,17.90
2016,03,29,17,00,18.00
2016,03,29,17,01,18.10
2016,03,29,17,02,18.10
2016,03,29,17,03,18.20
2016,03,29,17,04,18.20
2016,03,29,17,05,18.30
2016,03,29,17,06,18.30
2016,03,29,17,07,18.40
2016,03,29,17,08,18.40
2016,03,29,17,09,18.50
2016,03,29,17,10,18.50
2016,03,29,17,11,18.60
2016,03,29,17,12,18.60
2016,03,29,17,13,18.60
2016,03,29,17,14,18.70
2016,03,29,17,15,18.70
2016,03,29,17,16,18.70
2016,03,29,17,17,18.60
2016,03,29,17,18,18.60
2016,03,29,17,19,18.60
2016,03,29,17,20,18.60
2016,03,29,17,21,18.50
2016,03,29,17,22,18.50
2016,03,29,17,23,18.50
2016,03,29,17,24,18.50
2016,03,29,17,25,18.40
2016,03,29,17,26,18.40
2016,03,29,17,27,18.40
2016,03,29,17,28,18.40
2016,03,29,17,29,18.40
2016,03,29,17,30,18.40
2016,03,29,17,31,18.40
2016,03,29,17,32,18.30
2016,03,29,17,33,18.30
2016,03,29,17,34,18.30
2016,03,29,17,35,18.30
2016,03,29,17,36,18.30
2016,03,29,17,37,18.30
2016,03,29,17,38,18.30
2016,03,29,17,39,18.30
2016,03,29,17,40,18.30
2016,03,29,17,41,18.30
2016,03,29,17,42,18.30
2016,03,29,17,43,18.30